Find Starlink 31946

NORAD ID: 59940 Int'l Des: 2024-106 Owner: SPXS Country: US Constellation: starlink operational
LEOCIRCULAR

Current View

Loading 3D Globe...

About Starlink 31946

Starlink 31946 (NORAD 59940) is a starlink constellation satellite (v2 mini) launched Jun 1, 2024 by SPXS of US. It operates in LEO, CIRCULAR orbit with a mass of 730.00 kg.

About Starlink 31946

Description loading...

Upcoming Passes

Passes for default location (London). Set your location on the main map for personalized predictions.

Altitude History

Loading altitude history...

Two-Line Element Set

1 59940U 24106U 26168.89664576 .00001478 00000-0 63230-4 0 9992
2 59940 43.0015 126.9899 0001484 275.9852 84.0831 15.27586167106471
Epoch: Jun 17, 2026 • Age: 23 hours

Current Status

Altitude 483.9 km
Velocity 7.63 km/s
Sub-Earth Point 26.44°N, 61.13°E
Launch Date Jun 1, 2024
Age 2 years
Type internet

Technical Details

Classification Payload
Mass 730.00 kg
Dry Mass 700.00 kg
Total Mass 730.00 kg
Length 0.30 m
Diameter 4.10 m
Span 29.00 m
Shape Box + pan
Manufacturer SPXS
Bus Type Starlink V2M
Phase Status In Orbit
Owner/State SPXS/US

Most Searched